Torna al catalogo

STARLINK-5846

AttivoComunicazioniVLEO
NORAD 56492·PAYLOAD·🇺🇸 United States

Lanciato May 10, 2023 da Vandenberg Space Force Base

Loading…

Prossimi Passaggi (prossime 24 ore)

TLE

AggiornatoSource: CelesTrak SupGP

Epoca: Sep 14, 2026, 20:40 UTC

1 56492C 23064AW  26257.86159722 -.00049034  00000+0 -41099-2 0  2576
2 56492  70.0017 347.4616 0003322 272.9088 290.0560 14.98348979    15

Traccia STARLINK-5846 in tempo reale con AllMySat

Download on the App Store